FW1872 Weather Reports


time (UTC)temp
C
wind
direction
speed
KPH
gust
KPH
rain 1hr
cm
rain 24hr
cm
rain mn
cm
humidity
%
barometer
mb
20260505140515 16 0.0 0.0 0.00 0.53 0.05
20260505124515 13 0.0 0.0 0.00 0.53 0.05
20260505123535 14 0.0 0.0 0.00 0.53 0.05
20260505122516 13 0.0 0.0 0.00 0.53 0.05
20260505121515 13 0.0 0.0 0.00 0.53 0.05
20260505120515 13 0.0 0.0 0.00 0.53 0.05
20260505115535 12 0.0 0.0 0.00 0.53 0.05
20260505114515 12 0.0 0.0 0.00 0.53 0.05
20260505113515 12 0.0 0.0 0.00 0.53 0.05
20260505112535 12 0.0 0.0 0.00 0.53 0.05
20260505111515 12 0.0 0.0 0.00 0.53 0.05
20260505110535 12 0.0 0.0 0.00 0.53 0.05
20260505101515 12 0.0 0.0 0.00 0.53 0.05
20260505100515 12 0.0 0.0 0.03 0.53 0.05
20260505095535 12 0.0 0.0 0.05 0.53 0.05
20260505094516 12 0.0 0.0 0.13 0.53 0.05
20260505093515 12 0.0 0.0 0.18 0.53 0.05
20260505092535 12 0.0 0.0 0.20 0.53 0.05
20260505091515 12 0.0 0.0 0.25 0.53 0.05
20260505090515 12 0.0 0.0 0.28 0.51 0.03
20260505085515 12 0.0 0.0 0.41 0.48 0.48
20260505083515 13 0.0 0.0 0.28 0.36 0.36
20260505082515 13 0.0 0.0 0.25 0.33 0.33
20260505081515 13 0.0 0.0 0.23 0.28 0.28
20260505080515 13 0.0 0.0 0.23 0.23 0.23
20260505075515 13 0.0 0.0 0.08 0.08 0.08
20260505074515 13 0.0 0.0 0.08 0.08 0.08
20260505073515 13 0.0 0.0 0.08 0.08 0.08
20260505072516 13 0.0 0.0 0.08 0.08 0.08
20260505071515 15 0.0 0.0 0.05 0.05 0.05
20260505070515 16 0.0 0.0 0.00 0.00 0.00
20260505065515 16 0.0 0.0 0.00 0.00 0.00
20260505064515 16 0.0 0.0 0.00 0.00 0.00
20260505063515 17 0.0 0.0 0.00 0.00 0.00
20260505062516 17 0.0 0.0 0.00 0.00 0.00
20260505061515 18 0.0 0.0 0.00 0.00 0.00
20260505060535 18 0.0 0.0 0.00 0.00 0.00
20260505055515 17 0.0 0.0 0.00 0.00 0.00
20260505054515 17 0.0 0.0 0.00 0.00 0.00
20260505053515 17 0.0 0.0 0.00 0.00 0.00
20260505052515 17 0.0 0.0 0.00 0.00 0.00
20260505051515 17 0.0 0.0 0.00 0.00 0.00
20260505050515 17 0.0 0.0 0.00 0.00 0.00
20260505041515 18 0.0 0.0 0.00 0.00 0.00
20260505040516 18 0.0 0.0 0.00 0.00 0.00
20260505035516 18 0.0 0.0 0.00 0.00 0.00
20260505034515 18 0.0 0.0 0.00 0.00 0.00
20260505033535 18 0.0 0.0 0.00 0.00 0.00
20260505032515 19 0.0 0.0 0.00 0.00 0.00
20260505031515 19 0.0 0.0 0.00 0.00 0.00
20260505030535 19 0.0 0.0 0.00 0.00 0.00
20260505025515 18 0.0 0.0 0.00 0.00 0.00
20260505024536 18 0.0 0.0 0.00 0.00 0.00
20260505023515 18 0.0 0.0 0.00 0.00 0.00
20260505022536 18 0.0 0.0 0.00 0.00 0.00
20260505021515 18 0.0 0.0 0.00 0.00 0.00
20260505020536 18 0.0 0.0 0.00 0.00 0.00
20260505015515 18 0.0 0.0 0.00 0.00 0.00
20260505014516 18 0.0 0.0 0.00 0.00 0.00
20260505013515 18 0.0 0.0 0.00 0.00 0.00
20260505012535 18 0.0 0.0 0.00 0.00 0.00
20260505011535 18 0.0 0.0 0.00 0.00 0.00
20260505010515 19 0.0 0.0 0.00 0.00 0.00
20260505005515 20 0.0 0.0 0.00 0.00 0.00
20260505004516 20 0.0 0.0 0.00 0.00 0.00
20260505003515 20 0.0 0.0 0.00 0.00 0.00
20260505002515 20 0.0 0.0 0.00 0.00 0.00
20260505001515 21 0.0 0.0 0.00 0.00 0.00
20260505000516 21 0.0 0.0 0.00 0.00 0.00
20260504235515 21 0.0 0.0 0.00 0.00 0.00
20260504234516 21 0.0 0.0 0.00 0.00 0.00
20260504233515 22 0.0 0.0 0.00 0.00 0.00
20260504232516 22 0.0 0.0 0.00 0.00 0.00
20260504231515 22 0.0 0.0 0.00 0.00 0.00
20260504230515 23 0.0 0.0 0.00 0.00 0.00
20260504225515 25 0.0 0.0 0.00 0.00 0.00
20260504224536 24 0.0 0.0 0.00 0.00 0.00
20260504223515 23 0.0 0.0 0.00 0.00 0.00
20260504222515 23 0.0 0.0 0.00 0.00 0.00
20260504221515 22 0.0 0.0 0.00 0.00 0.00
20260504220515 23 0.0 0.0 0.00 0.00 0.00
20260504215515 23 0.0 0.0 0.00 0.00 0.00
20260504214515 23 0.0 0.0 0.00 0.00 0.00
20260504213535 23 0.0 0.0 0.00 0.00 0.00
20260504212515 23 0.0 0.0 0.00 0.00 0.00
20260504211535 23 0.0 0.0 0.00 0.00 0.00
20260504210515 22 0.0 0.0 0.00 0.00 0.00
20260504205535 22 0.0 0.0 0.00 0.00 0.00
20260504204515 22 0.0 0.0 0.00 0.00 0.00
20260504203515 23 0.0 0.0 0.00 0.00 0.00
20260504202515 23 0.0 0.0 0.00 0.00 0.00
20260504201516 22 0.0 0.0 0.00 0.00 0.00
20260504200536 22 0.0 0.0 0.00 0.00 0.00
20260504195536 22 0.0 0.0 0.00 0.00 0.00
20260504194556 22 0.0 0.0 0.00 0.00 0.00
20260504193515 21 0.0 0.0 0.00 0.00 0.00
20260504192516 18 0.0 0.0 0.00 0.00 0.00
20260504191515 18 0.0 0.0 0.00 0.00 0.00
20260504190535 18 0.0 0.0 0.00 0.00 0.00
20260504185515 17 0.0 0.0 0.00 0.00 0.00
20260504184535 16 0.0 0.0 0.00 0.00 0.00
20260504183536 17 0.0 0.0 0.00 0.00 0.00
20260504182515 17 0.0 0.0 0.00 0.00 0.00
20260504181536 17 0.0 0.0 0.00 0.00 0.00
20260504180535 17 0.0 0.0 0.00 0.00 0.00
20260504175515 17 0.0 0.0 0.00 0.00 0.00
20260504174536 18 0.0 0.0 0.00 0.00 0.00
20260504173535 18 0.0 0.0 0.00 0.00 0.00
20260504172515 18 0.0 0.0 0.00 0.00 0.00
20260504171535 19 0.0 0.0 0.00 0.00 0.00
20260504170515 20 0.0 0.0 0.00 0.00 0.00
20260504150535 18 0.0 0.0 0.00 0.00 0.00